RH
91 90 93 95 93 94 95 95 95 95 95 96 97 98 99 99 99 99 98 97 97 98 96 94 97 89 79 63 42 37 32 25 29 56 72 33 3 10 14 20 28 26 21 23 25 23 25 27 25 25 29 32 31 29 24 20 15 14 19 22 22 21 18 17 14 9 10 10 10 10 9 9 8 8 7 20 53 65 67 72 69 72 73 72 73 74 79 80
94 92 92 94 94 95 96 97 94 93 93 94 97 99 98 97 98 99 99 99 98 98 95 96 94 78 61 44 30 28 24 32 57 75 51 7 4 12 11 23 29 23 21 26 26 25 28 29 29 28 31 34 29 24 21 16 14 15 22 22 20 19 16 13 11 9 10 9 10 9 9 10 6 10 6 10 50 71 76 83 80 86 88 82 82 80 83 85
93 93 91 91 92 94 96 98 96 93 91 91 95 96 96 95 95 97 98 99 98 96 97 94 84 64 41 28 26 21 28 55 67 48 15 -1 6 3 9 28 31 25 24 24 20 21 24 22 26 28 31 35 29 22 18 15 14 15 18 21 19 16 13 11 10 9 10 9 10 9 9 9 6 10 7 11 50 72 79 89 89 93 95 91 88 84 86 88
92 92 90 91 92 94 95 96 96 95 92 91 93 93 95 94 94 96 97 98 97 97 96 84 70 52 26 18 20 16 41 67 45 18 9 8 9 2 5 22 34 34 30 25 16 19 24 20 23 26 29 33 28 20 16 15 13 14 16 18 18 13 12 11 10 10 10 9 9 9 9 8 7 8 7 12 31 53 71 80 83 92 93 91 89 88 89 90
92 91 90 91 94 94 93 94 96 97 94 92 92 93 94 95 96 96 96 96 95 97 95 80 65 47 19 12 16 20 41 45 23 22 25 18 13 6 4 18 36 36 32 29 18 18 24 23 24 25 28 29 26 20 18 15 11 14 14 14 15 12 12 11 10 10 10 10 9 10 8 7 9 8 9 9 8 29 60 66 73 86 87 87 88 89 92 92
92 92 91 91 92 93 93 94 94 95 95 93 93 94 94 96 96 96 96 94 95 97 97 89 72 45 16 11 23 31 36 26 19 27 25 18 13 5 6 22 37 34 28 25 19 19 24 28 29 28 27 25 24 21 19 14 10 13 13 12 12 11 12 10 9 10 10 10 9 8 8 7 9 9 9 10 9 24 50 61 72 81 80 82 84 89 93 92
91 93 94 92 91 93 94 94 93 92 94 94 94 95 94 96 96 95 93 91 96 97 98 96 77 44 15 17 42 57 59 38 16 18 22 20 15 8 13 27 35 29 25 23 21 21 26 33 33 28 24 24 24 20 18 14 11 13 12 11 10 10 10 9 8 9 10 9 9 8 7 8 8 10 8 14 31 43 55 65 73 77 77 80 85 91 92 91
91 91 94 95 94 94 95 96 94 94 93 95 96 96 95 95 97 94 90 91 97 96 99 97 78 48 16 26 59 71 72 47 9 6 16 18 20 19 22 30 30 25 25 23 19 20 29 37 33 26 23 23 21 18 16 14 13 12 12 11 8 9 9 9 9 9 11 9 10 8 7 9 8 10 5 19 50 58 60 68 73 76 78 81 87 92 90 90
92 92 93 96 96 94 96 98 97 97 95 94 96 97 95 96 96 93 92 93 94 97 99 94 83 58 30 47 75 59 39 22 3 8 16 20 22 21 22 23 23 25 26 21 17 20 31 36 31 24 23 22 18 16 14 12 14 11 10 9 7 9 7 8 8 8 11 9 10 8 8 10 8 10 5 24 58 59 62 71 74 78 79 83 88 90 91 91
92 92 93 97 97 93 95 98 97 96 94 94 94 95 95 97 96 93 94 93 93 99 97 93 91 70 49 66 75 43 19 13 12 18 21 23 19 16 19 18 23 26 23 20 19 23 31 33 28 21 19 20 16 16 15 12 13 10 8 9 8 8 7 8 8 9 10 8 10 8 9 9 8 10 4 24 57 60 66 74 74 78 80 83 86 90 91 93
92 91 92 95 97 94 95 97 96 96 95 95 93 93 96 96 94 88 88 91 95 98 93 95 93 76 64 77 74 34 14 23 27 25 24 23 19 16 17 18 23 21 19 24 23 24 29 30 28 22 18 17 15 14 14 12 11 9 8 8 8 9 8 9 8 10 9 8 11 8 10 9 8 10 4 26 57 60 69 76 76 77 79 84 87 92 93 97
92 92 91 92 96 95 95 97 97 97 98 97 94 96 97 95 95 87 78 75 79 88 93 98 98 88 78 83 76 29 6 26 36 32 30 24 17 13 15 16 16 13 15 24 27 26 27 29 28 24 17 13 12 12 10 10 9 9 9 8 10 10 9 10 9 10 9 8 10 8 10 10 10 9 6 34 59 59 69 76 75 76 80 87 89 93 94 98
90 92 93 94 97 95 95 98 98 99 97 96 97 99 97 97 92 76 61 49 53 80 96 98 99 95 78 59 41 13 3 18 23 23 26 27 20 12 15 18 13 8 10 21 28 25 25 25 23 20 15 11 13 11 9 10 10 10 9 8 9 11 11 9 8 9 8 9 9 8 14 16 14 8 9 40 59 58 72 75 73 76 81 90 91 93 96 98
90 93 94 97 99 94 95 99 99 98 94 95 98 99 99 94 75 52 44 41 51 83 97 97 100 96 84 50 13 3 5 6 10 12 17 28 28 14 15 20 15 9 11 23 25 20 22 20 17 15 12 12 12 11 11 11 12 11 10 13 13 12 13 9 8 10 8 10 9 7 15 16 13 9 9 39 59 59 71 73 70 76 83 91 92 92 95 95
90 91 93 97 100 95 95 99 99 96 94 97 97 99 98 77 49 34 38 46 57 80 94 97 97 92 84 53 12 5 13 21 27 17 13 27 29 18 15 18 18 12 13 21 20 18 20 17 15 15 12 13 11 12 15 13 17 13 12 26 23 12 13 10 9 11 7 9 9 8 15 13 11 10 6 31 59 59 67 71 68 76 84 90 93 93 93 94
89 90 94 95 98 95 94 99 98 95 96 97 96 99 86 52 32 32 47 62 65 77 93 93 92 89 67 34 14 12 18 33 33 15 15 25 24 19 15 16 18 16 14 17 17 17 18 15 15 14 13 14 13 15 18 18 27 23 17 29 26 13 14 12 9 11 8 8 9 8 13 12 10 12 5 24 57 61 63 69 68 74 83 90 93 92 92 93
92 92 94 95 96 93 93 96 96 96 96 96 98 87 53 27 29 40 55 67 63 68 82 78 82 84 54 23 23 25 20 22 19 12 18 23 20 17 16 20 20 18 17 15 16 17 17 15 16 20 18 16 16 17 22 24 30 30 20 21 22 16 14 14 12 10 7 8 9 8 11 11 11 14 8 14 43 60 62 64 67 74 84 91 91 90 91 91
93 91 94 97 96 92 92 95 94 96 95 97 98 66 29 24 38 52 61 65 65 68 72 73 74 68 47 31 30 28 20 15 14 15 20 21 19 17 18 21 20 19 19 18 20 19 19 17 19 27 23 17 17 20 28 28 24 27 24 22 23 18 15 16 13 10 8 8 9 10 10 10 9 13 12 16 37 55 58 61 67 75 84 89 89 88 89 89
92 92 93 97 96 91 92 95 94 95 94 99 89 49 37 56 64 71 70 69 78 67 55 66 67 48 34 31 27 24 20 14 13 15 19 23 20 18 19 19 18 20 22 25 26 22 21 20 21 26 25 22 20 20 23 21 18 21 21 22 22 18 16 15 11 9 8 8 10 11 10 10 11 13 16 29 50 57 55 61 67 74 83 85 86 87 87 88
95 92 92 96 96 92 93 95 95 95 92 100 92 61 64 84 84 87 78 73 78 58 43 55 56 41 29 23 20 21 19 14 12 11 15 21 19 19 19 17 19 21 26 30 31 27 23 25 27 28 27 26 24 22 18 16 15 16 17 19 18 17 17 15 13 10 7 10 11 11 12 11 15 18 15 30 58 62 57 64 68 72 81 82 83 83 83 85
93 91 94 95 93 93 95 95 96 97 95 100 100 81 74 70 61 68 68 63 64 55 49 46 44 42 30 21 20 20 21 17 12 9 11 16 18 22 21 19 22 27 29 28 28 27 23 30 33 27 25 23 24 28 26 23 20 17 19 20 18 20 20 17 15 10 10 14 13 15 15 12 19 23 17 29 56 64 60 64 66 70 75 77 81 79 78 81
90 92 95 94 95 95 94 95 97 97 94 94 97 89 71 47 32 36 41 43 45 47 50 41 39 39 29 27 25 23 27 21 13 10 10 13 18 22 22 21 25 29 29 27 29 28 28 34 30 23 24 23 24 27 29 29 27 24 23 22 23 23 20 22 20 12 12 14 15 17 12 14 28 30 23 25 37 50 58 59 58 65 72 74 77 76 76 80
92 93 95 96 96 93 95 99 91 83 81 84 93 82 48 22 15 18 28 39 38 39 47 47 45 41 34 33 28 27 33 25 15 11 9 14 20 21 22 23 25 28 28 31 35 35 35 32 24 22 22 23 25 25 25 26 27 32 28 22 23 21 18 26 24 14 14 18 20 21 21 34 43 33 27 24 20 30 50 56 52 58 66 68 69 70 72 77
94 93 97 97 92 95 100 88 72 70 74 81 85 63 31 21 23 22 34 49 45 35 36 40 42 40 36 31 26 29 32 24 17 12 10 15 18 17 19 22 26 28 28 30 33 34 31 23 19 21 21 22 24 23 26 25 27 37 35 24 24 24 21 24 22 21 29 32 31 33 40 54 51 32 26 26 17 20 37 51 54 57 61 63 65 68 72 75
94 96 99 94 93 100 92 72 70 76 76 78 71 48 34 36 35 32 46 63 61 44 29 28 34 32 26 25 27 26 24 22 17 11 11 13 15 16 16 18 23 28 29 27 31 33 30 22 18 18 19 19 19 21 25 26 29 36 37 32 28 26 26 24 21 30 39 33 28 29 32 46 54 41 28 26 28 31 38 49 52 52 53 57 65 71 73 75
94 98 96 93 96 95 82 74 79 77 69 65 53 39 37 38 38 39 55 77 73 46 26 24 27 21 18 24 25 22 23 23 15 10 11 11 12 14 14 16 19 25 26 25 28 29 26 22 18 17 19 17 18 19 18 24 33 34 35 34 26 23 26 27 22 28 35 29 27 26 24 38 48 39 28 32 50 59 57 62 61 56 52 44 51 69 76 78
96 98 95 94 95 94 91 84 79 74 64 53 43 42 40 38 39 37 54 83 74 40 23 20 18 14 16 20 17 20 30 26 14 11 11 11 11 11 14 17 18 19 19 21 28 28 22 22 21 19 18 18 20 19 15 22 32 35 34 26 21 21 22 24 21 20 28 30 34 35 28 32 35 34 37 44 62 73 72 78 77 76 73 54 53 76 88 87
97 98 96 95 97 98 95 92 91 81 60 48 49 50 42 37 40 44 67 88 61 27 19 16 15 14 14 17 14 16 23 20 16 15 11 10 11 11 15 17 19 20 17 22 32 31 24 23 23 21 20 20 19 17 17 19 24 32 31 20 18 19 17 21 17 21 37 32 34 47 34 21 33 54 61 58 68 78 80 86 84 85 89 80 81 95 99 95
94 95 95 97 99 87 82 95 99 75 52 53 57 50 40 38 44 56 76 80 45 18 17 16 16 16 14 16 15 13 15 14 16 17 11 12 13 13 16 17 17 18 15 19 28 27 21 20 19 18 21 21 16 15 17 20 21 23 23 18 18 16 16 24 21 27 45 35 33 49 33 16 43 81 88 79 83 86 85 88 86 88 91 90 94 98 98 98
93 96 95 99 99 83 81 87 74 57 54 60 58 45 41 46 58 67 64 58 40 20 17 18 17 18 17 17 17 14 14 13 13 15 15 15 14 14 16 15 15 20 23 21 22 21 16 16 16 15 18 18 16 17 16 18 19 17 18 15 17 29 33 42 50 43 37 36 45 51 31 18 41 79 97 93 90 89 89 93 90 90 92 93 95 94 95 99
95 98 97 101 98 92 94 74 52 59 60 56 55 47 49 60 73 78 56 37 34 23 18 21 18 18 16 17 20 15 14 15 12 15 20 19 18 19 19 18 19 27 36 31 25 24 17 13 15 15 16 16 15 18 16 17 17 15 21 17 20 42 46 48 60 47 30 44 58 45 27 29 47 73 93 93 87 86 90 97 97 95 96 96 95 93 93 95
96 96 99 102 97 101 97 62 45 56 48 51 64 59 66 67 63 76 61 36 35 28 20 22 19 17 16 16 20 17 16 18 14 14 20 23 26 25 23 29 30 30 40 42 34 33 28 20 15 13 15 14 14 20 18 18 18 15 26 29 27 38 40 41 51 46 39 49 50 30 22 49 74 82 91 91 86 88 90 94 96 96 96 94 92 92 91 92
93 95 96 93 91 96 78 42 36 42 41 62 75 70 78 72 58 65 60 44 40 27 18 20 18 17 17 18 21 18 17 19 17 14 17 22 29 28 23 27 32 32 44 50 39 32 33 28 18 11 15 15 15 21 22 23 22 16 24 31 32 39 39 40 46 46 41 41 43 30 21 55 87 84 89 94 87 86 88 90 92 92 94 92 89 89 89 92
93 95 88 77 80 82 58 38 39 43 59 80 80 76 76 70 66 62 48 41 34 21 17 19 18 19 19 20 20 19 20 21 17 13 14 20 29 34 28 20 23 28 34 38 35 33 35 36 27 16 16 16 15 19 22 26 25 18 23 27 32 47 48 43 45 42 35 35 46 39 26 57 92 86 87 93 84 82 84 87 91 90 90 90 89 89 90 93
91 89 81 74 73 66 55 56 51 50 77 91 84 85 78 67 72 66 48 34 21 15 16 15 18 23 23 22 20 17 19 21 18 11 13 21 28 35 31 21 21 25 26 35 41 33 27 36 33 18 17 16 14 18 18 21 25 21 22 22 23 37 43 44 51 54 52 45 42 50 54 69 87 84 82 86 83 84 84 84 90 92 91 92 93 94 94 95
95 87 82 80 68 58 63 70 60 63 88 91 80 86 82 69 64 56 41 25 14 13 15 16 20 24 27 26 21 18 18 20 20 15 13 16 21 26 26 21 18 18 25 41 47 33 24 39 38 17 16 19 14 19 16 16 29 29 22 20 21 23 24 33 46 48 51 44 36 61 85 80 78 79 80 85 87 86 86 85 90 93 92 94 96 98 98 98
101 93 91 85 66 63 69 62 58 74 90 90 86 83 74 59 45 39 33 23 16 12 15 26 25 22 28 28 23 20 18 21 22 20 19 17 19 21 18 18 17 16 20 25 35 39 34 41 42 21 13 19 16 17 16 14 25 28 22 20 19 17 23 42 55 43 38 40 45 73 95 86 81 81 80 88 90 89 91 89 89 91 91 94 96 97 97 96
100 98 96 77 57 63 63 52 63 84 88 92 97 83 65 52 38 34 31 21 15 11 17 27 23 20 25 26 26 20 17 25 25 22 23 21 24 25 16 13 14 14 16 15 23 37 34 34 42 31 15 17 16 15 19 17 15 18 20 20 21 29 38 44 46 39 37 44 49 70 94 95 89 87 88 96 97 93 95 93 91 92 93 94 95 94 94 93
99 101 93 67 55 58 53 55 72 81 78 88 97 80 59 48 36 32 28 17 13 16 20 23 21 24 25 23 26 23 20 26 25 26 27 21 26 33 26 21 19 13 14 16 17 28 37 37 41 37 22 16 17 20 29 28 16 13 15 16 25 42 47 37 34 37 39 48 54 68 92 100 93 90 92 97 97 95 96 95 95 94 92 93 92 92 93 92
95 99 90 68 60 56 53 64 75 78 79 83 85 69 48 37 29 25 22 15 13 17 21 20 21 27 26 22 23 23 24 24 20 27 35 32 33 39 37 32 31 25 14 11 13 19 29 33 43 49 32 21 26 26 28 29 22 19 21 20 21 27 31 31 37 40 38 51 66 74 90 98 93 91 93 97 97 94 94 94 95 93 90 90 90 89 91 90
91 97 90 70 59 53 59 71 75 79 81 74 63 48 34 31 28 21 16 15 14 14 16 18 20 23 24 23 21 20 24 26 24 32 43 50 49 47 44 37 33 34 30 26 23 21 27 34 49 56 36 25 34 29 21 22 21 20 25 28 23 22 30 33 38 48 54 62 69 75 90 98 94 94 94 97 98 94 92 92 92 91 88 88 88 86 87 87
96 98 83 64 57 55 62 76 77 72 70 64 52 36 28 30 27 20 15 15 14 12 14 18 20 21 21 21 19 20 28 30 29 38 50 56 56 51 48 43 36 39 51 55 45 42 54 52 43 42 35 29 31 32 31 28 28 33 39 43 39 32 36 39 44 56 61 64 68 77 93 97 94 96 95 94 96 93 91 90 89 90 87 86 86 85 84 85
97 96 76 58 56 54 58 71 72 64 60 55 42 29 28 28 23 18 17 19 17 12 14 19 20 21 20 18 17 21 32 34 30 40 53 56 57 53 48 49 49 51 64 72 61 55 60 52 38 38 47 43 31 33 41 37 42 59 64 65 59 44 41 51 67 74 67 66 75 84 95 98 94 95 93 90 90 89 88 89 89 88 85 82 83 84 85 84
94 98 85 66 54 51 63 76 76 74 69 54 43 40 34 28 25 22 21 24 22 17 20 23 21 22 20 19 20 21 28 35 35 40 51 58 59 53 50 54 56 62 70 71 65 56 48 53 59 50 43 43 37 43 57 56 58 72 78 77 68 59 58 55 64 78 72 68 78 87 94 100 97 95 92 88 87 87 86 84 84 85 82 80 81 82 83 83
95 96 90 79 59 51 71 85 84 90 89 73 69 65 46 32 27 22 22 25 22 22 29 29 24 23 23 24 26 25 28 37 41 43 54 64 60 51 54 58 56 63 69 65 68 65 56 68 83 70 53 51 52 61 73 75 74 79 84 84 78 79 74 53 54 76 79 75 85 93 96 99 99 95 93 91 89 90 88 84 83 83 81 80 80 81 82 80
97 91 91 92 73 63 80 86 79 90 97 86 78 66 48 39 32 22 24 28 23 23 29 28 24 26 31 34 33 31 35 42 45 50 62 70 63 55 57 59 58 62 63 61 70 78 74 75 81 80 74 71 74 79 75 77 88 92 90 90 89 90 84 70 71 81 80 85 97 96 93 98 101 98 96 95 92 91 91 88 87 87 85 84 82 81 81 80
97 92 95 96 82 76 84 85 81 87 89 80 72 58 46 44 38 29 28 27 23 25 29 29 27 27 33 39 39 35 41 52 56 57 62 66 65 63 60 58 62 66 63 63 70 82 87 82 75 77 76 72 76 79 72 75 89 94 93 95 95 92 90 89 88 77 71 86 99 95 91 97 101 99 99 98 93 91 91 90 91 92 90 87 83 82 81 81
94 95 95 89 86 86 82 80 83 84 79 76 72 59 48 49 48 40 34 30 26 28 33 35 32 29 27 32 41 39 39 57 68 62 61 66 71 75 69 61 64 67 67 70 73 80 92 88 77 78 80 74 73 74 74 78 85 88 91 94 94 93 94 97 98 91 83 87 94 95 94 98 101 100 99 97 94 91 89 87 87 90 91 87 86 86 85 84
88 95 96 84 83 89 84 76 75 76 77 77 69 54 48 50 49 42 38 38 36 35 39 40 37 34 31 38 58 59 48 62 71 63 64 70 71 80 79 67 66 67 71 82 83 81 88 88 79 79 85 83 77 75 77 79 85 91 91 89 90 92 92 95 96 95 93 91 94 98 99 99 100 99 98 96 91 89 87 85 83 87 90 90 89 91 89 87
89 93 96 91 90 92 88 78 72 73 73 69 60 50 49 49 45 43 41 39 40 38 39 42 41 41 39 44 62 65 58 68 70 58 65 71 66 75 77 65 64 69 75 90 91 79 79 85 83 84 92 92 82 77 81 82 88 95 94 90 90 90 92 95 94 92 94 97 98 98 99 101 98 94 94 93 89 88 88 88 87 87 89 90 92 94 92 90
90 86 86 95 98 92 85 77 72 67 60 58 56 49 49 47 43 44 41 33 37 40 39 43 45 46 48 49 53 52 49 56 52 41 53 64 60 65 68 61 66 75 80 88 92 86 86 90 90 89 96 97 86 78 81 80 80 90 98 98 96 96 98 98 97 96 95 95 96 96 100 102 97 91 90 89 90 92 92 91 91 90 88 89 94 97 94 91
93 87 85 94 97 90 79 67 62 61 60 67 64 49 45 46 42 46 43 34 35 38 38 45 50 53 57 53 48 44 38 38 36 30 35 44 49 56 61 60 66 76 82 85 88 92 93 94 94 92 94 97 91 86 86 82 80 86 95 98 97 98 98 96 96 97 94 92 95 98 100 98 93 90 91 92 93 96 97 96 95 94 92 91 93 96 95 92
Wind_Speed
10 10 11 11 11 11 11 11 11 11 11 11 11 11 12 12 12 12 12 13 12 12 11 12 12 12 12 12 14 15 18 20 22 17 12 22 22 15 13 9 7 11 16 10 7 6 5 5 7 8 3 1 2 2 4 5 3 2 2 4 4 4 4 4 3 3 2 2 5 4 4 6 5 6 2 7 8 7 7 7 4 7 7 5 8 21 33 30
11 11 11 11 11 11 11 11 11 12 12 12 12 12 12 12 13 13 13 13 13 12 11 12 12 12 12 12 13 15 19 21 19 18 24 29 23 17 15 11 7 9 16 13 12 12 7 6 7 6 3 0 2 2 3 3 3 4 3 4 5 5 4 2 3 6 4 2 3 4 3 6 3 5 2 5 4 6 8 5 5 8 8 8 12 21 25 26
12 12 11 11 12 12 12 12 12 12 12 12 12 12 13 13 14 14 14 14 13 13 12 12 12 12 12 12 13 14 17 16 10 15 25 26 23 24 18 14 10 9 12 10 13 16 11 9 10 6 3 2 3 2 3 2 2 4 4 4 6 5 4 5 4 6 7 5 1 5 2 6 5 4 1 5 7 6 7 4 3 5 6 8 10 15 19 21
12 12 12 12 12 12 12 12 12 12 13 13 13 13 13 14 14 14 14 14 14 13 13 13 13 13 12 12 12 13 12 8 4 9 15 15 17 23 23 18 14 10 10 8 10 16 11 6 7 5 4 3 3 2 3 4 2 2 5 5 6 5 5 7 6 6 7 4 3 3 5 5 7 4 1 3 6 2 4 7 8 10 11 11 11 12 15 15
12 12 12 12 13 13 13 13 13 13 13 13 14 13 14 14 14 14 15 15 14 14 14 13 13 13 11 12 10 9 7 2 4 6 5 6 11 19 24 20 15 12 12 10 10 13 9 4 3 3 3 3 2 2 4 6 3 3 4 6 7 5 5 8 6 6 5 3 4 4 5 3 5 4 4 3 2 4 6 6 9 15 16 16 15 13 13 12
13 13 12 12 13 13 13 13 13 13 14 14 14 14 14 14 14 15 15 15 14 14 14 12 13 13 11 11 7 4 3 1 7 6 3 0 5 15 23 19 15 13 14 13 9 9 7 3 3 3 3 4 4 5 6 5 4 4 6 5 8 7 7 8 3 5 4 5 3 1 1 1 4 5 5 3 2 6 6 7 11 14 15 17 16 15 14 14
14 14 13 13 13 13 13 13 14 14 14 14 14 15 14 15 15 15 15 15 14 14 14 12 13 13 11 7 4 4 4 7 14 6 4 1 7 12 18 17 15 16 16 14 10 7 5 5 5 4 4 4 5 7 7 5 5 6 7 6 8 8 9 9 4 6 6 7 5 4 2 0 1 3 4 1 4 3 5 8 11 11 12 13 12 12 15 16
14 14 14 13 13 14 14 14 14 14 15 15 15 15 15 15 15 15 15 14 14 14 13 12 12 12 9 5 4 3 1 12 18 12 11 6 9 12 16 17 17 17 17 17 13 8 5 5 6 5 4 6 4 5 4 2 4 7 9 9 7 7 9 9 7 7 6 5 5 5 3 5 6 3 3 4 4 3 6 7 9 10 11 11 11 11 12 12
13 14 14 14 14 14 14 14 14 15 15 15 16 16 16 16 15 15 14 14 14 14 13 12 12 9 6 4 5 2 6 15 17 14 14 13 12 13 16 16 18 19 17 17 15 9 5 5 6 5 5 5 4 4 1 1 4 6 8 9 7 7 7 7 6 6 6 5 4 6 3 7 5 2 4 5 6 5 7 8 8 10 11 11 11 11 9 7
15 14 14 15 14 14 14 14 14 15 16 16 17 16 16 16 16 15 14 14 14 14 14 11 10 6 2 3 5 0 7 11 12 11 13 16 14 15 16 15 19 21 16 14 15 11 7 5 5 4 3 3 3 4 3 3 5 6 7 8 8 9 8 5 4 4 4 4 4 5 4 7 4 2 4 3 7 8 9 8 6 9 10 11 9 7 7 8
16 15 15 15 15 15 15 15 15 15 16 16 17 17 17 17 17 16 14 14 14 14 12 9 7 3 2 4 5 4 6 5 7 10 13 17 17 16 17 17 21 23 17 11 14 15 11 10 6 1 2 3 3 4 5 4 3 7 8 7 7 6 6 5 5 5 1 1 5 7 3 6 3 3 6 4 8 9 10 8 7 8 8 8 8 7 7 7
15 16 16 15 15 15 15 15 15 16 16 17 18 18 18 18 17 16 15 14 14 13 11 9 6 2 2 3 4 12 8 1 3 7 12 18 18 17 16 17 21 25 20 12 13 18 16 14 7 2 4 2 2 3 4 3 4 7 7 5 6 5 5 6 5 3 2 2 5 6 2 6 3 6 7 7 10 8 10 9 8 8 6 6 7 7 6 6
15 16 16 16 16 15 15 16 16 17 17 18 19 19 19 19 17 16 15 14 13 12 9 7 5 4 2 1 10 18 13 7 7 9 15 18 15 14 14 15 19 23 22 17 15 16 14 13 9 7 5 1 2 3 3 4 3 6 4 2 3 6 5 6 4 3 3 3 6 6 2 6 6 10 7 8 11 9 9 8 8 7 5 6 6 6 5 6
15 16 16 16 16 15 16 16 17 17 18 19 19 20 20 19 18 15 13 13 12 10 7 4 4 5 3 4 14 17 16 16 18 18 19 19 14 10 13 15 16 20 21 20 16 11 11 14 9 5 3 3 2 3 5 5 2 3 3 2 1 1 5 4 2 4 4 2 7 7 3 6 8 11 6 8 12 11 9 9 9 7 6 6 6 7 5 5
16 16 16 16 16 16 16 16 17 18 18 20 20 21 22 19 16 14 12 11 10 7 6 4 7 5 1 7 14 14 12 12 19 22 19 21 17 8 12 17 16 18 20 20 18 13 14 13 5 2 1 1 2 3 4 4 3 2 0 3 2 3 4 6 3 6 5 2 6 8 4 6 8 10 7 8 11 12 11 10 9 7 7 7 6 6 6 4
16 16 16 17 17 16 17 17 18 18 19 20 21 23 22 18 15 11 9 9 7 5 5 4 8 5 1 5 9 12 10 7 13 17 17 24 21 10 13 17 14 16 18 20 21 18 13 6 2 3 1 2 3 4 4 4 5 3 2 3 2 3 2 5 5 6 9 3 3 8 5 3 5 9 7 6 12 12 11 11 10 8 8 8 6 5 6 5
15 16 17 17 17 17 17 17 18 19 20 20 23 24 20 15 11 9 8 8 5 6 7 4 5 4 2 6 7 9 8 9 10 13 20 25 21 14 13 10 8 13 15 16 17 14 7 1 1 1 2 2 2 5 4 3 4 4 1 2 3 3 2 2 6 5 8 8 5 8 7 5 6 7 5 2 11 12 11 13 11 8 7 6 6 6 7 7
16 16 17 17 17 17 17 17 18 18 20 21 24 24 18 9 7 8 4 4 4 4 5 3 3 3 4 7 5 4 4 9 10 14 23 25 18 17 14 7 5 7 7 7 7 5 1 2 1 1 2 0 2 5 3 4 5 3 1 2 4 3 3 4 6 5 6 10 9 9 8 9 9 7 7 4 7 14 14 13 11 9 8 7 7 8 7 6
16 17 17 18 17 17 17 17 17 18 19 22 24 18 7 1 3 3 3 6 5 3 2 4 6 2 3 6 6 5 6 10 11 11 20 23 17 16 14 8 5 5 4 2 3 3 1 2 3 2 2 3 3 5 6 8 5 3 2 2 4 4 5 5 8 7 8 9 8 10 9 9 8 6 6 6 2 8 9 7 6 6 7 7 7 6 6 5
16 17 18 18 17 17 17 17 17 18 18 20 22 13 1 3 2 1 2 5 6 6 3 3 8 4 4 2 2 5 8 9 9 8 16 21 15 10 7 5 4 4 3 4 3 3 3 2 2 4 6 6 6 6 8 8 4 3 4 4 5 5 6 6 8 8 8 8 6 9 8 7 7 5 6 4 5 8 6 4 3 4 4 6 6 6 6 5
16 17 18 17 18 18 17 18 18 18 17 17 17 8 1 2 1 2 2 6 10 12 10 6 10 11 10 8 9 8 6 5 8 8 16 19 12 8 4 4 5 3 4 5 3 1 4 4 7 7 8 8 7 7 7 6 4 5 4 5 7 5 6 8 8 5 3 5 4 7 7 7 7 4 4 3 7 8 9 8 7 7 6 6 7 8 7 5
17 17 18 18 18 18 18 18 18 18 19 17 10 4 5 6 3 3 3 4 8 13 14 10 11 15 16 17 21 13 5 6 8 7 14 14 8 6 5 4 6 4 4 4 3 1 2 5 9 9 8 7 6 7 7 5 4 5 4 4 6 4 4 8 6 3 4 3 3 4 7 7 8 4 5 4 7 6 10 13 12 11 8 7 9 9 7 6
17 17 18 17 18 19 18 19 20 19 17 13 8 8 7 7 7 12 8 3 6 8 10 9 10 11 13 14 17 11 5 7 8 8 13 12 6 6 6 5 7 5 4 5 5 4 4 6 10 9 7 6 7 7 5 4 4 4 4 4 6 5 2 4 5 7 6 1 3 3 3 4 6 5 6 3 5 3 8 13 12 11 12 13 12 10 9 9
17 17 18 17 19 19 19 22 19 12 10 11 14 12 10 13 14 16 8 1 5 5 9 12 8 6 12 12 8 7 6 7 7 8 14 13 4 4 6 5 6 5 4 6 7 6 7 7 6 7 7 7 7 7 5 4 4 4 5 6 5 5 4 4 2 7 7 4 2 6 4 5 5 6 7 5 3 5 3 7 6 6 8 8 8 7 6 2
17 17 17 18 18 19 22 20 11 7 11 12 14 12 18 19 14 10 4 0 4 3 6 10 7 7 15 12 6 5 5 6 6 7 13 13 7 5 4 3 5 5 7 7 7 6 9 7 5 6 8 8 7 7 6 6 4 4 5 8 7 6 5 2 2 5 6 5 2 5 4 5 6 5 7 6 8 10 7 3 2 3 3 4 4 3 4 7
17 16 17 17 17 21 19 10 6 12 13 8 8 15 19 16 9 5 3 2 3 3 3 7 7 8 11 7 5 5 4 6 5 11 15 15 12 8 3 1 2 6 8 5 4 4 6 6 7 8 9 9 8 8 6 7 5 3 6 7 6 2 3 3 3 5 2 2 3 3 5 3 5 6 7 6 10 10 10 9 8 7 4 1 1 4 6 6
17 16 17 16 16 18 12 6 11 15 7 5 12 17 16 15 10 2 3 3 3 3 4 4 4 8 9 8 8 7 5 5 3 9 14 16 13 7 5 4 2 5 6 3 3 4 5 7 8 9 8 8 7 7 6 9 7 4 6 5 2 2 4 4 2 3 3 2 4 3 5 2 3 6 8 6 10 11 12 13 12 11 9 4 4 7 6 6
17 16 16 16 16 15 11 12 15 9 6 11 19 16 14 14 8 2 3 1 2 2 4 3 3 6 6 6 9 6 5 4 4 6 12 18 14 5 5 7 6 7 6 5 5 5 4 8 9 9 8 6 6 8 8 10 6 6 7 5 3 3 3 3 2 3 2 2 4 6 3 4 2 6 9 7 10 11 11 11 12 12 12 9 7 8 8 8
16 17 16 17 17 14 10 10 11 7 10 19 20 16 14 11 4 2 2 1 2 1 2 2 3 5 3 5 8 6 4 4 3 6 9 13 11 4 4 7 6 5 4 5 6 5 4 7 9 8 7 6 9 10 8 9 6 6 5 4 1 2 2 3 3 3 2 4 2 7 1 4 1 5 7 6 7 7 7 8 10 11 11 10 9 8 8 8
16 17 16 16 17 14 9 10 14 9 11 20 20 15 11 6 2 3 1 3 3 1 2 1 2 4 4 6 6 7 7 4 2 5 7 7 7 3 2 4 4 2 2 3 5 6 5 5 4 5 6 7 9 8 8 10 7 4 3 2 3 5 4 4 3 4 4 3 5 7 2 6 2 4 5 5 5 5 4 5 8 10 11 10 8 7 7 5
17 17 17 16 16 13 10 9 10 5 9 19 19 10 5 3 1 3 2 2 2 1 2 1 2 5 8 8 6 7 8 4 2 5 7 6 5 2 1 2 3 2 2 4 4 4 5 4 3 3 5 6 6 4 4 6 6 6 4 2 1 4 4 4 5 4 3 2 7 6 2 8 4 1 3 6 8 8 6 6 8 9 10 10 9 9 8 7
19 20 18 17 16 13 11 9 5 5 12 19 15 5 4 2 0 1 2 3 1 2 3 4 4 6 9 9 6 7 7 4 2 5 6 6 5 4 4 4 4 2 1 4 3 4 4 5 5 4 3 5 7 3 1 2 4 6 5 5 3 1 2 1 3 1 2 4 6 5 2 6 3 1 5 9 11 10 8 7 8 9 10 10 10 10 9 8
22 23 22 21 19 20 21 16 12 13 16 17 9 2 4 2 2 3 2 2 1 1 1 3 6 7 10 8 5 7 6 4 3 4 6 7 6 5 5 4 5 5 2 4 2 2 4 5 4 3 3 2 7 6 2 1 2 4 4 5 4 2 2 0 3 0 1 5 5 3 2 4 2 2 5 6 10 9 7 7 8 9 10 10 10 10 8 7
24 25 24 21 18 21 21 18 16 14 13 11 4 3 3 2 3 3 2 1 1 4 3 3 6 7 10 7 5 7 5 4 5 5 6 6 5 4 5 4 4 5 3 2 2 3 2 4 3 3 3 2 5 7 7 5 3 3 4 5 5 4 4 3 2 2 3 4 5 4 1 3 3 2 2 1 9 10 8 7 7 8 10 8 9 9 8 7
26 24 21 17 16 17 14 13 12 8 6 4 4 3 2 3 2 1 2 2 1 3 4 5 7 7 7 5 5 8 6 4 6 6 6 6 6 5 4 5 5 4 4 2 2 2 4 4 7 4 3 5 6 4 5 7 3 3 3 5 3 4 5 3 3 5 4 1 2 2 3 2 3 4 1 2 8 10 9 9 8 9 10 9 10 9 8 8
25 21 15 14 15 10 7 9 10 8 3 2 4 1 3 3 2 2 2 3 2 4 4 5 8 5 4 4 3 7 6 3 4 5 4 7 6 6 5 4 6 7 5 4 2 1 3 4 8 1 3 5 7 6 4 6 4 1 2 2 3 5 8 4 2 1 3 2 2 1 4 2 3 4 4 5 8 9 10 11 10 9 10 11 10 8 7 7
22 17 10 11 11 4 3 11 16 11 3 3 3 3 3 3 4 3 3 5 4 4 3 2 5 3 3 4 3 7 7 3 4 4 3 5 4 5 7 5 6 9 8 6 3 2 4 3 7 1 4 6 5 7 4 4 6 4 2 4 1 3 4 4 2 1 3 2 3 1 5 4 3 2 3 5 8 9 9 10 11 10 11 11 10 9 10 10
18 12 10 10 7 3 7 18 21 11 2 3 0 3 3 3 3 4 5 5 5 3 4 3 2 2 2 3 3 7 9 5 4 5 4 4 2 2 4 4 5 9 11 9 3 2 3 1 7 2 5 4 2 5 1 3 1 5 5 4 4 3 1 1 2 2 2 3 1 3 2 1 2 2 1 3 6 9 9 10 11 11 11 10 9 10 11 11
11 6 6 3 6 10 16 23 17 5 2 2 2 2 3 4 5 7 7 4 3 2 4 2 0 2 2 2 2 4 8 9 7 4 4 3 1 1 1 2 3 7 9 11 6 3 2 2 4 6 1 2 3 3 2 3 4 1 2 1 2 3 3 2 3 4 4 3 2 2 2 1 2 2 1 2 5 8 9 9 9 10 10 8 8 8 9 9
5 2 3 3 12 18 22 20 8 2 2 2 3 2 3 4 5 8 7 2 0 1 2 0 1 3 2 2 4 3 4 8 7 5 3 3 3 2 4 4 2 5 6 10 7 3 2 3 3 6 5 3 1 2 6 6 3 2 2 2 2 1 1 2 1 2 4 4 3 3 0 3 2 1 2 4 5 8 9 8 8 8 9 9 8 8 8 8
3 1 2 8 21 25 20 9 2 1 1 2 2 2 5 5 5 7 5 1 1 1 3 1 1 2 2 2 4 4 1 4 3 2 3 3 3 2 4 4 2 3 1 4 3 1 3 3 3 3 3 1 1 1 2 6 6 6 4 3 4 3 2 2 0 2 2 4 4 5 3 3 0 2 2 5 7 7 7 8 8 9 9 9 9 9 8 8
2 0 2 11 25 24 12 2 1 2 2 2 2 4 6 5 5 6 4 2 1 0 1 1 1 2 2 1 3 4 2 4 4 4 4 4 5 2 4 4 3 4 4 3 0 1 3 4 3 2 2 3 3 8 9 5 4 7 3 1 1 3 3 5 3 3 2 3 2 5 3 2 1 2 3 6 7 7 7 7 7 8 9 9 9 9 8 7
1 1 2 10 21 15 5 1 2 2 3 3 4 7 7 5 5 4 4 4 3 2 2 2 2 3 3 2 3 4 3 4 5 4 5 4 6 3 4 3 7 5 4 2 2 1 2 3 2 2 4 2 3 8 11 9 7 6 3 3 2 1 3 5 5 3 3 2 2 4 2 2 3 3 5 7 7 8 8 7 7 7 7 9 10 8 8 7
2 2 2 5 12 7 3 2 2 2 3 4 5 6 7 7 6 2 3 4 3 3 2 3 3 2 3 3 2 5 5 4 4 4 4 3 3 4 6 7 9 6 3 1 1 1 1 1 3 2 2 3 2 3 6 7 5 4 3 6 5 3 3 3 2 4 4 1 2 5 2 2 3 4 6 7 8 9 9 8 8 7 7 8 9 8 8 7
2 0 1 2 4 3 2 2 2 1 4 3 4 6 6 5 3 2 2 2 4 4 2 1 3 2 3 4 4 7 8 5 2 2 4 3 2 3 6 8 9 6 3 3 2 2 3 2 3 5 4 4 3 1 1 2 2 3 4 8 9 7 5 2 3 4 3 1 3 4 3 3 5 7 7 8 9 9 9 9 8 8 8 8 8 8 8 7
1 1 1 3 1 2 2 2 1 2 3 2 3 5 2 1 1 2 3 3 5 6 3 1 3 4 5 6 5 6 8 7 4 4 4 3 2 2 5 7 8 6 6 10 8 3 4 3 3 6 6 5 4 2 2 2 4 4 6 10 10 8 6 3 4 3 4 4 4 2 6 8 7 8 8 8 8 8 8 8 8 7 7 8 8 8 7 7
0 0 1 0 0 1 2 3 1 3 4 1 2 4 2 2 3 3 3 2 3 5 4 3 5 5 3 4 4 3 5 6 6 5 4 2 1 2 5 5 7 8 7 7 8 3 5 4 6 8 9 6 6 5 5 8 9 7 7 10 11 10 9 8 5 1 4 6 2 1 8 10 6 7 8 7 7 7 7 7 7 6 6 7 7 7 8 8
1 1 1 1 1 2 3 3 3 5 5 3 2 2 3 5 4 2 2 2 3 4 4 3 5 5 2 1 4 2 3 5 5 4 2 3 3 3 5 5 6 8 6 4 6 3 6 3 5 8 11 9 8 9 11 13 11 9 11 10 11 13 13 10 5 2 1 5 6 8 10 9 6 8 8 7 7 6 6 6 5 5 6 7 7 8 9 9
1 1 2 1 0 2 3 3 3 4 5 5 3 1 2 4 4 2 1 3 4 4 4 2 5 7 6 3 5 2 2 3 2 2 1 2 3 2 3 4 4 6 6 4 4 3 4 3 3 8 10 8 6 6 10 13 12 11 12 10 9 11 13 11 8 7 7 8 9 12 13 9 6 6 7 7 7 5 5 6 6 6 8 8 7 8 9 10
1 1 1 2 2 3 2 2 2 3 3 3 2 2 1 3 2 2 2 4 2 3 4 4 3 7 9 8 8 5 2 5 5 1 1 3 3 1 1 0 1 3 5 4 3 3 3 1 1 4 7 5 4 6 9 12 13 12 12 11 10 10 11 10 8 7 9 10 11 12 12 8 5 6 8 7 5 5 6 7 7 8 8 8 8 9 9 10
3 4 3 1 3 2 1 2 1 2 1 1 1 1 1 1 1 1 2 2 2 1 2 4 4 6 8 9 9 6 2 5 7 2 3 4 2 2 2 2 3 2 4 3 2 4 3 2 1 3 5 1 0 5 9 11 14 13 11 11 11 8 7 7 6 5 5 8 11 10 7 4 4 5 8 7 7 8 8 7 7 7 8 9 8 9 10 10
4 5 3 1 2 2 1 2 1 3 3 3 3 2 1 2 2 2 3 4 4 4 3 7 7 5 6 8 7 3 2 2 4 3 3 2 2 3 3 2 4 4 2 3 2 2 3 4 2 3 4 2 3 2 3 5 8 7 5 7 6 4 5 6 7 9 7 4 6 4 3 4 5 6 7 8 8 9 8 7 7 7 8 9 8 8 9 9
Wind_Direction
314 313 313 314 314 315 316 317 318 317 319 318 317 319 319 319 318 317 318 316 318 319 322 324 326 329 329 332 336 335 331 323 314 307 257 249 254 246 242 213 186 209 205 208 212 188 152 171 205 202 198 317 204 229 222 203 182 141 163 206 232 223 221 203 204 299 346 305 310 352 41 75 22 315 351 54 54 73 57 30 49 33 48 117 121 144 155 159
313 313 313 314 313 313 315 316 317 316 318 319 319 320 320 321 319 319 318 317 318 319 323 327 327 330 330 334 340 341 334 323 312 290 256 252 256 249 235 207 183 190 191 201 210 189 160 180 198 181 149 183 224 218 219 208 167 170 175 199 225 217 224 213 214 298 301 214 313 342 55 63 11 282 341 71 82 89 79 36 45 63 62 80 112 140 153 158
309 311 312 313 313 313 314 315 315 316 316 318 319 319 320 321 320 320 319 318 319 321 326 327 328 329 330 337 345 343 333 327 313 273 264 259 251 246 232 197 184 186 186 199 208 196 187 189 184 164 142 213 253 226 229 245 201 191 183 215 240 226 259 269 234 268 254 189 52 328 16 43 333 282 27 109 130 120 125 133 95 109 125 119 128 142 153 161
310 309 309 311 312 312 314 315 315 315 315 315 317 318 319 319 320 320 319 319 320 322 325 327 329 325 329 343 345 342 340 334 286 263 271 262 241 233 223 205 195 205 210 217 215 202 205 206 183 173 161 210 261 227 230 243 238 205 185 210 233 220 262 269 248 253 244 161 126 316 19 19 317 309 341 110 123 164 201 180 165 159 152 144 149 153 160 168
311 310 309 309 309 311 313 314 315 315 314 314 315 316 318 318 318 318 318 319 320 323 324 328 327 323 332 344 341 341 3 11 281 291 286 255 230 214 206 201 197 207 216 219 217 202 217 252 189 193 190 218 238 202 241 234 218 253 233 223 228 217 254 265 255 243 249 75 75 13 23 340 320 337 319 359 92 215 218 201 172 160 158 159 161 160 164 172
308 308 308 309 309 309 310 313 314 314 314 313 314 314 316 317 316 317 316 316 319 320 323 329 326 325 333 343 349 6 70 260 302 329 341 66 194 196 190 191 194 204 210 208 202 192 214 223 178 198 199 215 208 203 244 236 189 238 266 244 233 222 230 260 268 216 206 91 96 69 302 298 16 330 296 5 300 231 196 175 165 162 161 161 160 161 167 176
305 305 304 307 308 308 309 312 312 312 313 312 312 312 313 314 313 314 313 313 317 318 322 327 325 326 334 357 31 58 92 267 277 285 307 56 140 172 180 188 194 200 202 195 187 184 189 178 188 194 192 215 207 214 240 246 201 213 250 247 237 225 223 248 243 203 180 144 177 169 147 173 87 287 302 342 274 235 161 156 155 151 147 151 158 168 172 176
306 305 304 305 306 307 309 309 311 311 310 311 311 311 311 312 311 311 311 312 314 317 320 323 323 326 337 25 77 44 112 252 256 254 268 231 157 163 176 187 195 198 193 190 190 182 172 186 205 190 196 220 208 222 233 276 247 215 232 240 238 228 224 237 225 214 212 187 180 142 145 227 207 210 291 255 223 148 129 136 140 136 139 150 165 177 178 178
308 308 306 305 305 307 308 309 310 309 309 310 310 310 309 309 308 307 308 308 311 315 316 319 320 326 350 57 87 27 254 249 258 262 251 214 183 181 184 190 195 190 186 193 192 185 193 196 203 190 198 226 227 250 260 329 263 225 225 238 240 240 239 238 231 223 228 218 167 139 177 253 245 203 270 229 171 136 121 129 141 141 148 161 173 178 169 152
307 308 307 306 306 306 308 310 310 309 309 309 308 308 307 307 305 304 306 306 308 311 312 318 317 322 14 95 98 82 265 264 265 254 228 207 198 196 199 202 193 183 180 189 194 200 213 211 218 209 205 233 237 249 248 225 253 261 256 257 243 244 251 227 221 232 223 225 186 149 190 258 269 183 265 240 151 140 129 139 155 149 162 172 168 157 135 119
308 306 306 306 305 306 308 310 310 309 308 307 307 306 305 305 302 302 305 304 305 307 309 311 312 310 143 103 108 213 261 293 256 221 210 210 208 210 211 206 192 182 178 181 202 211 216 236 256 275 232 242 256 258 246 235 293 285 269 275 268 265 268 223 208 228 208 245 182 135 173 268 288 200 240 193 150 152 143 149 164 166 177 167 146 135 130 134
308 306 305 305 305 306 308 309 310 309 307 308 306 304 304 303 301 301 301 304 304 303 304 301 291 216 145 87 187 229 234 235 230 213 212 213 218 226 218 206 194 187 183 179 209 217 218 238 245 236 250 251 298 281 258 275 319 277 250 257 288 334 311 252 230 204 153 223 175 119 339 295 278 240 239 164 156 159 149 157 175 181 173 149 145 146 145 151
308 306 305 305 306 307 308 309 310 308 308 308 306 305 303 300 297 297 300 304 304 300 295 290 267 217 160 121 236 243 248 249 271 279 251 232 229 229 212 204 202 196 192 187 204 217 224 245 234 219 233 164 272 267 282 303 299 275 264 213 298 348 315 252 225 194 187 202 153 121 285 280 262 255 248 160 158 152 151 171 183 184 162 155 162 153 158 164
308 306 305 305 306 308 309 310 310 309 309 308 306 305 301 297 293 295 301 300 299 295 280 264 229 202 165 255 261 263 271 275 275 274 259 241 230 218 203 202 208 205 200 202 216 229 244 258 248 214 205 165 231 286 326 337 319 295 314 4 18 313 282 265 210 198 213 188 135 133 225 256 265 268 252 164 161 155 163 187 187 183 164 163 171 162 171 173
306 305 306 305 306 307 309 310 311 310 310 309 307 305 300 294 292 297 297 290 293 282 258 228 204 190 56 277 275 285 288 279 261 253 244 231 220 205 204 204 211 212 208 214 226 245 258 261 248 152 236 246 59 15 352 346 324 336 342 320 341 195 266 305 268 192 198 226 136 152 223 263 262 263 245 170 165 163 168 192 192 180 168 168 176 171 175 172
308 306 306 305 305 307 309 311 312 311 312 310 308 304 297 295 298 293 276 274 287 255 220 208 200 192 8 275 286 299 280 239 237 236 224 219 212 199 206 206 212 215 214 222 231 246 260 262 188 157 76 18 69 69 25 358 329 345 155 237 254 198 261 313 288 210 187 187 161 187 216 271 256 255 253 159 165 173 173 192 193 175 174 175 174 177 181 174
310 308 306 305 305 307 309 311 313 313 313 313 310 305 300 302 289 267 262 260 257 208 192 188 182 180 273 279 300 297 246 215 224 209 204 212 209 203 206 200 207 209 214 227 234 243 253 309 202 222 49 71 125 98 56 347 286 305 312 241 252 220 218 274 302 277 181 167 192 213 219 239 255 271 305 123 166 180 182 190 191 175 173 172 173 191 197 180
311 309 307 306 306 307 309 312 314 314 316 315 311 307 306 301 247 242 244 190 170 174 206 228 177 166 264 259 260 273 225 213 213 189 195 205 205 209 208 195 188 185 196 226 240 237 236 5 84 107 359 215 147 108 119 222 220 240 251 268 285 290 268 238 277 291 163 161 184 203 222 241 263 297 324 335 170 187 195 188 182 174 170 176 187 202 208 182
309 308 307 307 306 309 310 312 315 316 318 316 316 317 311 209 180 210 179 160 147 152 220 220 189 167 282 237 221 266 266 216 200 180 189 197 200 211 213 205 179 148 143 185 265 262 155 21 61 139 235 225 182 145 182 217 207 209 223 230 251 277 275 239 253 246 168 157 179 191 212 235 263 296 307 322 100 169 191 178 177 179 168 181 199 212 207 175
308 307 307 307 308 310 311 313 315 315 317 320 327 337 71 133 110 130 182 208 221 235 260 197 198 244 310 291 283 288 276 225 205 192 193 196 191 195 212 209 159 130 143 152 229 269 136 152 227 200 204 212 208 190 207 233 232 248 289 292 274 281 277 264 271 253 171 148 181 193 206 238 260 267 259 273 84 114 147 153 201 200 184 198 208 218 202 175
305 307 308 309 309 310 311 313 311 311 314 315 322 331 240 241 158 130 213 228 229 236 256 229 204 241 261 269 287 304 318 247 217 207 204 201 178 165 209 193 153 172 195 164 179 284 121 182 229 215 201 204 212 212 220 243 257 259 273 283 286 286 272 279 283 266 136 121 185 195 193 239 258 240 233 185 117 138 165 170 201 203 200 212 210 215 199 162
306 307 308 310 310 310 311 311 306 305 304 300 300 274 263 268 238 319 311 248 236 222 239 244 220 244 254 260 271 280 313 255 221 214 207 196 168 167 203 175 160 194 201 152 140 146 162 219 234 221 201 200 221 228 219 226 248 254 254 264 275 270 275 298 314 356 44 103 205 195 176 239 272 262 249 189 147 177 184 179 193 194 192 210 215 217 199 165
308 308 310 311 311 312 311 307 304 302 298 290 253 217 258 284 291 313 317 273 265 212 213 231 221 246 254 261 266 249 252 242 206 208 196 181 168 171 182 174 170 184 178 164 163 163 196 233 230 215 189 190 230 247 233 236 256 246 237 244 263 266 266 292 324 356 7 87 170 140 147 272 304 321 297 232 146 163 203 196 193 187 186 200 205 202 197 188
310 310 312 312 313 314 311 309 308 308 314 295 254 245 295 311 301 306 313 236 275 234 209 212 194 235 241 244 248 195 209 227 195 198 186 174 159 144 174 177 159 176 196 191 179 182 232 243 209 192 190 192 220 250 231 216 260 256 226 217 235 254 229 215 300 352 355 357 76 82 47 322 331 343 312 297 43 34 271 222 208 214 210 213 215 208 209 176
312 312 313 315 317 316 314 314 312 325 328 295 265 295 330 323 302 290 291 339 282 260 216 204 182 231 232 225 225 193 205 226 201 184 177 175 163 143 187 175 140 188 209 200 183 204 247 243 160 173 207 201 209 242 218 182 222 266 240 217 207 220 233 223 59 43 21 348 338 83 66 305 314 325 296 315 18 20 353 334 341 311 327 337 319 321 15 46
312 313 315 316 317 321 322 317 315 324 316 280 286 331 338 334 320 251 215 10 288 243 166 166 169 208 211 190 188 180 196 241 208 169 172 178 174 158 177 191 151 196 204 195 185 216 236 205 170 187 208 206 212 240 219 167 172 240 242 220 202 214 286 318 53 79 79 276 276 89 112 246 309 330 309 357 41 29 15 13 9 9 6 298 144 62 60 77
313 313 316 316 319 329 331 301 315 323 300 290 335 337 337 339 334 218 149 11 272 216 144 157 171 178 182 176 163 149 182 225 168 163 174 178 177 154 159 191 193 202 197 165 199 234 197 182 193 196 200 206 213 238 214 157 150 227 237 211 218 304 306 309 48 112 193 227 320 8 103 135 336 333 321 16 56 30 18 13 1 360 351 332 122 102 89 92
312 313 315 315 318 322 311 294 305 305 278 325 341 340 344 345 335 155 126 338 233 177 140 169 189 167 169 168 160 171 212 180 142 191 185 178 177 144 165 198 192 202 198 160 205 250 189 185 200 191 193 205 209 228 202 154 159 234 223 196 233 263 265 296 65 133 190 74 342 318 63 87 334 323 327 13 52 29 14 5 356 360 2 13 57 82 86 88
311 314 312 314 316 314 308 288 276 271 309 335 344 339 340 345 338 100 110 214 209 189 137 134 166 174 161 138 160 202 226 160 179 203 174 178 184 147 181 205 190 206 221 181 213 259 230 203 199 181 180 201 216 225 191 156 189 227 186 153 55 1 355 360 64 113 55 55 261 274 46 102 311 334 341 7 40 22 0 357 358 1 8 26 44 59 77 86
311 311 310 316 314 315 326 291 268 277 324 336 340 336 338 350 17 93 117 234 238 219 108 126 175 167 157 144 163 205 205 177 179 166 158 185 191 156 194 193 160 172 293 254 238 252 253 236 207 180 184 197 207 210 181 169 181 168 136 111 36 14 14 22 40 76 49 2 257 259 83 104 106 341 353 14 30 16 1 3 5 3 9 22 33 47 61 71
310 308 309 309 305 311 320 289 262 263 325 335 340 343 4 18 60 118 145 261 278 114 114 186 184 154 163 163 166 195 200 189 119 146 164 182 181 185 248 171 138 87 355 306 281 283 287 274 251 225 203 178 164 180 190 172 144 110 98 99 55 343 7 24 357 33 69 285 265 263 68 81 87 302 24 50 45 33 35 28 14 11 13 17 26 40 50 55
307 307 305 297 291 281 262 251 242 267 316 336 344 3 62 62 231 183 232 320 348 179 186 195 188 169 170 169 163 179 192 187 137 152 168 170 174 192 198 181 175 157 287 267 276 333 315 257 243 256 234 160 142 154 311 19 68 88 88 86 98 326 14 17 304 359 157 245 260 252 99 76 81 29 35 57 62 45 42 44 31 26 23 21 25 32 39 47
309 307 301 291 282 265 253 257 272 285 313 336 347 43 81 107 211 219 238 326 7 243 226 179 182 165 159 165 168 172 185 196 171 162 175 172 169 194 223 211 162 137 187 229 229 354 315 293 274 249 268 181 139 138 157 311 67 110 129 125 129 123 87 227 274 357 242 261 271 265 125 114 127 51 2 38 73 65 55 52 43 40 36 31 29 28 30 36
311 307 301 294 281 265 260 263 269 281 314 338 14 91 105 177 234 230 220 274 279 297 311 178 172 156 158 175 178 162 173 221 195 158 160 169 163 189 235 234 173 128 139 199 174 161 202 299 277 192 222 222 151 152 162 154 133 156 162 139 144 149 135 184 213 160 226 263 293 304 87 129 153 129 280 18 81 77 74 63 52 47 42 41 38 31 25 23
312 309 305 295 277 264 258 253 250 259 306 347 66 89 179 202 253 245 231 266 240 274 279 196 174 160 167 189 188 171 173 217 200 159 157 172 173 186 202 218 202 149 123 169 220 179 160 237 253 221 189 171 155 171 145 113 123 220 137 105 150 175 146 152 174 163 180 181 349 345 57 73 138 136 206 69 80 79 78 69 61 54 44 44 42 33 23 14
317 317 311 286 272 267 244 221 208 199 230 56 95 181 224 215 258 246 270 317 310 292 293 201 172 158 176 194 198 195 194 198 177 153 164 172 173 190 193 212 203 170 150 166 212 189 145 247 271 243 157 176 160 171 156 135 169 217 105 152 218 167 138 136 199 144 101 124 266 117 106 106 128 105 27 44 74 76 75 71 67 58 48 46 41 33 30 20
321 321 309 271 261 267 194 177 167 168 178 87 128 221 246 245 253 256 297 323 300 294 335 142 156 131 170 184 200 199 192 196 176 156 162 172 179 197 194 213 207 181 174 169 206 220 151 254 287 135 171 225 177 151 153 149 144 115 157 209 176 91 103 109 152 14 66 162 265 39 122 151 151 107 1 40 74 76 75 77 73 58 47 46 40 35 35 31
317 313 297 267 236 196 163 157 152 154 131 70 121 257 262 259 280 301 307 313 299 309 33 65 99 57 122 165 227 200 173 177 197 168 157 179 214 210 186 218 223 199 182 162 184 253 135 239 290 269 176 214 118 104 90 323 104 138 171 181 125 126 236 65 146 140 117 174 254 17 57 124 149 161 346 32 75 86 77 71 72 62 52 47 42 40 37 33
306 301 304 273 177 165 155 148 145 135 84 104 237 247 266 276 289 290 283 287 311 9 58 51 61 42 62 101 286 228 170 171 189 168 145 168 192 359 5 328 255 228 195 165 169 224 132 117 279 292 280 133 68 80 169 284 313 130 129 106 119 144 163 190 175 150 155 184 163 69 7 313 228 212 124 69 82 92 83 72 69 65 61 55 48 44 37 34
272 282 332 129 149 151 146 141 131 68 108 176 221 240 292 292 283 278 268 227 324 74 97 332 355 40 22 359 322 288 172 161 174 164 127 119 114 69 355 352 311 274 219 174 167 191 164 132 217 292 341 73 103 235 194 189 191 173 161 189 217 214 171 165 142 129 139 158 155 122 69 267 255 271 112 96 79 84 87 85 79 69 67 64 58 54 42 37
250 311 18 143 147 143 137 130 83 102 181 242 232 254 291 298 292 285 281 122 130 174 141 159 18 49 43 353 336 322 42 106 128 126 84 60 82 78 331 321 317 323 276 152 130 133 169 156 183 269 347 111 199 312 189 188 172 156 169 198 190 192 181 131 263 301 99 131 158 135 156 249 348 66 90 80 67 64 67 77 81 73 69 65 59 57 49 40
245 52 40 144 150 143 127 88 299 165 230 256 238 269 292 303 289 281 297 9 40 22 90 84 35 47 61 11 336 334 36 69 49 61 83 66 65 68 297 310 31 44 70 101 56 193 142 120 143 220 246 187 118 63 55 54 89 102 98 353 123 132 128 131 193 255 78 89 106 102 118 226 98 88 92 81 74 66 57 61 73 73 70 67 61 53 47 40
222 306 1 151 162 154 101 44 270 288 269 260 271 280 285 282 274 291 339 2 15 23 38 36 31 41 37 6 336 352 34 72 57 73 112 91 60 25 317 19 67 54 51 55 315 312 81 93 141 249 294 313 78 62 47 39 53 68 36 360 25 97 147 146 171 176 101 60 67 89 94 190 158 137 109 95 85 73 56 44 57 66 66 63 60 51 39 33
305 307 349 166 182 181 95 146 218 281 264 271 285 276 268 258 248 270 4 355 354 15 50 34 20 32 24 12 17 17 30 66 67 68 96 95 63 358 359 56 75 59 47 83 248 253 62 87 116 97 350 339 351 17 17 15 35 60 2 340 345 1 56 97 111 89 73 15 127 119 124 172 147 126 99 88 81 70 53 40 44 52 54 53 54 49 35 27
326 296 304 275 216 178 145 178 168 231 269 291 284 265 264 260 230 134 66 4 2 25 76 46 11 53 47 34 39 29 34 62 73 39 58 66 65 5 7 45 71 73 59 42 34 124 97 74 115 129 161 198 205 208 258 313 13 52 3 350 354 3 22 85 114 78 87 138 89 103 142 134 103 90 79 70 70 64 48 40 38 39 44 46 48 46 34 26
340 126 276 316 324 141 218 249 160 216 258 279 271 263 263 295 320 34 54 37 18 25 51 35 19 41 39 41 52 36 38 54 60 54 52 43 59 19 0 29 57 59 45 31 22 61 94 48 63 109 130 166 168 179 201 135 77 51 7 4 5 359 6 81 104 96 142 129 52 66 136 123 99 83 74 60 56 54 43 38 36 33 32 35 42 43 36 31
303 152 172 216 263 197 251 276 232 219 237 239 268 277 312 359 339 349 12 31 22 20 24 23 34 41 31 48 68 49 45 53 50 61 60 24 51 18 1 32 40 24 32 30 6 35 98 40 23 71 84 92 100 86 75 85 82 71 47 24 14 14 28 56 73 120 145 113 69 143 118 108 99 82 76 69 59 53 45 38 32 26 26 32 37 32 32 33
216 263 236 190 181 197 220 244 234 231 244 251 248 293 354 21 27 342 324 356 16 33 47 9 1 2 335 95 109 86 59 55 31 35 58 19 13 2 356 17 28 20 36 39 1 52 106 49 15 73 78 70 81 88 85 85 79 66 60 46 28 32 43 53 45 343 114 125 149 145 114 101 101 83 72 71 67 59 52 44 33 22 26 34 34 27 28 28
176 296 273 267 184 212 222 244 251 244 246 243 243 328 28 43 27 323 317 36 6 7 72 65 348 358 8 68 114 87 38 90 53 354 74 35 19 33 17 359 2 21 48 54 17 54 98 52 40 90 84 59 57 86 93 92 85 63 53 48 43 46 49 51 47 36 56 92 116 113 101 93 89 82 71 63 60 58 53 43 34 26 24 26 27 27 26 21
93 32 307 333 306 259 246 278 260 240 256 257 268 312 36 75 36 332 18 65 27 341 49 80 40 35 42 58 80 68 44 130 127 76 122 90 33 44 83 289 304 14 40 58 13 10 70 104 223 96 85 48 31 73 87 91 87 69 46 33 36 44 41 38 37 38 56 81 91 92 94 90 78 82 79 65 56 57 49 40 36 28 22 24 24 26 24 18
285 294 304 341 303 287 240 266 222 163 242 287 202 258 353 34 217 184 28 26 135 127 111 128 94 55 51 52 64 66 56 114 109 97 151 149 160 174 161 171 157 75 40 65 27 9 67 135 221 75 87 90 205 103 100 94 83 67 41 20 23 40 49 40 31 25 54 107 108 94 90 102 113 103 84 69 61 59 47 35 36 29 23 26 26 26 24 16
328 310 309 182 274 307 254 260 247 142 206 226 188 197 51 1 306 117 75 359 19 49 94 135 116 78 60 51 43 23 315 122 115 118 151 163 165 145 133 117 119 112 98 100 74 37 97 122 114 86 98 163 221 192 101 84 72 56 13 348 0 54 85 62 39 30 35 85 112 99 93 114 125 116 91 76 66 59 48 33 31 28 24 26 28 28 25 16